Weather History for Christmas Island, IS

Change the Weather History Date:

Tuesday, June 18, 2013

  Actual Average Record
Temperature  
Mean Temperature 74 °F -  
Max Temperature 77 °F 77 °F 80 °F (1997)
Min Temperature 71 °F 71 °F 71 °F (2002)
Cooling Degree Days 9    
Growing Degree Days 24 (Base 50)    
Moisture  
Dew Point 75 °F    
Average Humidity 97    
Maximum Humidity 100    
Minimum Humidity 89    
Precipitation  
Precipitation 2.09 in - - ()
Sea Level Pressure  
Sea Level Pressure 29.67 in    
Wind  
Wind Speed 10 mph ()    
Max Wind Speed 15 mph    
Max Gust Speed 26 mph    
Visibility 2.6 miles    
Events Rain    
Averages and records for this station are not official NWS values.
T = Trace of Precipitation, MM = Missing Value Source: Averaged Metar Reports

Daily Weather History Graph

Daily Weather History Graph

Search for Another Location

Airport:

Trip Planner

Search our weather history database for the weather conditions in past years. The results will help you decide how hot, cold, wet, or windy it might be!

Date:

Astronomy

Jun. 18, 2013 Rise Set
Actual Time 6:12 AM CXT 5:43 PM CXT
Civil Twilight 5:50 AM CXT 6:06 PM CXT
Nautical Twilight 5:23 AM CXT 6:33 PM CXT
Astronomical Twilight 4:57 AM CXT 6:59 PM CXT
Moon 12:59 PM CXT (6/18) 12:45 AM CXT (6/18)
Length of Visible Light 12h 16m
Length of Day
11h 30m
Waxing Gibbous, 66% of the Moon is Illuminated
Jun 18
Waxing Gibbous
Jun 23
Full
Jun 30
Last Quarter
Jul 8
New
Jul 16
First Quarter

Hourly Weather History & Observations

Time (CXT) Temp. Dew Point Humidity Pressure Visibility Wind Dir Wind Speed Gust Speed Precip Events Conditions
12:00 AM 76 °F 74 °F 93% 29.71 in - North 8.1 mph - -   Overcast
12:00 AM 75.2 °F 75.2 °F 100% 29.74 in 6.2 mi North 8.1 mph - N/A Rain Light Rain Showers
1:00 AM 75 °F 72 °F 89% 29.68 in - North 8.1 mph - -  
1:00 AM 75.2 °F 73.4 °F 94% 29.71 in 6.2 mi North 8.1 mph - N/A Rain Light Rain Showers
1:19 AM 75.2 °F 73.4 °F 94% 29.71 in 6.2 mi North 6.9 mph - N/A   Light Drizzle
2:00 AM 77.0 °F 73.4 °F 89% 29.71 in 6.2 mi NNW 6.9 mph - N/A Rain Light Rain Showers
3:00 AM 76 °F 75 °F 95% 29.64 in - NNW 10.4 mph - -   Overcast
3:00 AM 77.0 °F 75.2 °F 94% 29.68 in 6.2 mi NNW 10.4 mph - N/A   Mostly Cloudy
3:49 AM 77.0 °F 75.2 °F 94% 29.65 in 6.2 mi NNW 10.4 mph - N/A   Scattered Clouds
4:00 AM 77 °F 74 °F 90% 29.62 in - NNW 11.5 mph - -  
4:00 AM 77.0 °F 75.2 °F 94% 29.65 in 6.2 mi NNW 11.5 mph - N/A   Scattered Clouds
4:15 AM 77.0 °F 75.2 °F 94% 29.65 in 6.2 mi North 10.4 mph - N/A Rain Light Rain Showers
5:00 AM 77.0 °F 75.2 °F 94% 29.68 in 6.2 mi North 9.2 mph - N/A   Overcast
6:00 AM 76 °F 75 °F 97% 29.65 in - North 11.5 mph - -   Overcast
6:00 AM 77.0 °F 75.2 °F 94% 29.68 in 6.2 mi North 11.5 mph - N/A   Overcast
7:00 AM 77 °F 75 °F 92% 29.66 in - North 9.2 mph - -  
7:00 AM 77.0 °F 75.2 °F 94% 29.68 in 6.2 mi North 9.2 mph - N/A   Light Drizzle
7:26 AM 77.0 °F 75.2 °F 94% 29.71 in 3.7 mi North 9.2 mph - N/A Rain Heavy Rain Showers
7:46 AM 77.0 °F 75.2 °F 94% 29.71 in 6.2 mi North 12.7 mph - N/A Rain Light Rain Showers
7:49 AM 77.0 °F 75.2 °F 94% 29.71 in 3.7 mi North 13.8 mph - N/A Rain Rain Showers
8:00 AM 77.0 °F 75.2 °F 94% 29.71 in 5.0 mi North 12.7 mph - N/A Rain Heavy Rain Showers
8:08 AM 77.0 °F 77.0 °F 100% 29.71 in 4.3 mi North 11.5 mph - N/A Rain Rain Showers
8:15 AM 77.0 °F 75.2 °F 94% 29.71 in 3.7 mi North 12.7 mph - N/A Rain Heavy Rain Showers
9:00 AM 73 °F 72 °F 95% 29.70 in 3 mi North 13.8 mph - -   Overcast
9:00 AM 73.4 °F 71.6 °F 94% 29.74 in - North 13.8 mph 26.5 mph N/A Rain Heavy Rain
9:38 AM 75.2 °F 75.2 °F 100% 29.71 in 5.0 mi NNW 10.4 mph - N/A Rain Light Rain
9:50 AM 77.0 °F 75.2 °F 94% 29.71 in 4.3 mi North 9.2 mph - N/A Rain Rain
9:51 AM 77.0 °F 75.2 °F 94% 29.71 in 3.7 mi North 10.4 mph - N/A Rain Rain
10:00 AM 77 °F 75 °F 92% 29.68 in - NNW 10.4 mph - -  
10:00 AM 77.0 °F 75.2 °F 94% 29.71 in 3.1 mi NNW 10.4 mph - N/A Rain Heavy Rain
10:51 AM 77.0 °F 75.2 °F 94% 29.71 in 3.7 mi NNW 11.5 mph - N/A Rain Rain
11:00 AM 77.0 °F 75.2 °F 94% 29.71 in 3.7 mi NNW 11.5 mph - N/A Rain Rain
11:47 AM 77.0 °F 75.2 °F 94% 29.68 in 4.3 mi NNW 11.5 mph - N/A Rain Rain
11:48 AM 77.0 °F 75.2 °F 94% 29.68 in 4.3 mi NNW 11.5 mph - N/A Rain Rain
11:49 AM 77.0 °F 75.2 °F 94% 29.68 in 3.7 mi NNW 11.5 mph - N/A Rain Rain
12:00 PM 77 °F 76 °F 95% 29.65 in 4 mi NNW 10.4 mph - -   Overcast
12:00 PM 77.0 °F 75.2 °F 94% 29.68 in 3.7 mi NNW 10.4 mph - N/A Rain Rain
1:00 PM 76 °F 75 °F 96% 29.63 in - NNW 12.7 mph - -  
1:00 PM 77.0 °F 75.2 °F 94% 29.65 in 3.7 mi NNW 12.7 mph - N/A Rain Heavy Rain
1:16 PM 75.2 °F 75.2 °F 100% 29.65 in 4.3 mi NNW 12.7 mph - N/A Rain Rain
1:30 PM 75.2 °F 75.2 °F 100% 29.65 in 3.7 mi NNW 12.7 mph - N/A Rain Rain
2:00 PM 77.0 °F 75.2 °F 94% 29.65 in 3.1 mi North 12.7 mph - N/A Rain Rain
3:00 PM 76 °F 75 °F 97% 29.59 in 1 mi NNW 13.8 mph - -  
3:00 PM 75.2 °F 75.2 °F 100% 29.62 in 0.9 mi NNW 13.8 mph 26.5 mph N/A Rain Light Rain
3:58 PM 75.2 °F 75.2 °F 100% 29.62 in 0.3 mi NNW 12.7 mph 24.2 mph N/A Rain Heavy Rain
4:00 PM 76 °F 75 °F 95% 29.60 in - NNW 11.5 mph - -  
4:00 PM 75.2 °F 75.2 °F 100% 29.62 in 0.3 mi NNW 11.5 mph 24.2 mph N/A Rain Heavy Rain
4:06 PM 75.2 °F 75.2 °F 100% 29.62 in 1.1 mi NNW 11.5 mph 24.2 mph N/A Rain Light Rain Showers
4:11 PM 75.2 °F 75.2 °F 100% 29.62 in 1.7 mi NNW 11.5 mph 23.0 mph N/A Rain Light Rain Showers
4:15 PM 75.2 °F 75.2 °F 100% 29.62 in 0.7 mi NNW 11.5 mph 23.0 mph N/A Rain Light Rain Showers
4:16 PM 77.0 °F 75.2 °F 94% 29.62 in 0.6 mi NNW 11.5 mph 23.0 mph N/A Rain Light Rain Showers
4:22 PM 75.2 °F 75.2 °F 100% 29.62 in 0.5 mi NNW 10.4 mph - N/A Rain Light Rain Showers
5:00 PM 75.2 °F 75.2 °F 100% 29.62 in 1.7 mi NNW 12.7 mph - N/A Rain Rain Showers
5:25 PM 75.2 °F 75.2 °F 100% 29.62 in 0.6 mi NNW 12.7 mph 24.2 mph N/A Rain Light Rain Showers
5:26 PM 75.2 °F 75.2 °F 100% 29.62 in 0.6 mi NNW 12.7 mph 24.2 mph N/A Rain Rain Showers
5:58 PM 75.2 °F 75.2 °F 100% 29.65 in 0.5 mi NNW 12.7 mph - N/A Rain Light Rain Showers
5:59 PM 75.2 °F 75.2 °F 100% 29.65 in 0.4 mi NNW 13.8 mph 26.5 mph N/A Rain Light Rain Showers
6:00 PM 76 °F 75 °F 96% 29.61 in 0 mi NNW 13.8 mph - -  
6:00 PM 75.2 °F 75.2 °F 100% 29.65 in 0.3 mi NNW 13.8 mph 26.5 mph N/A Rain Light Rain Showers
6:18 PM 75.2 °F 75.2 °F 100% 29.65 in 0.3 mi NNW 15.0 mph - N/A Rain Light Rain Showers
6:20 PM 75.2 °F 75.2 °F 100% 29.65 in 0.3 mi NNW 15.0 mph - N/A Rain Light Rain Showers
6:22 PM 75.2 °F 75.2 °F 100% 29.65 in 0.3 mi NNW 13.8 mph - N/A Rain Light Rain Showers
6:24 PM 75.2 °F 75.2 °F 100% 29.65 in 0.3 mi NNW 13.8 mph - N/A Rain Light Rain Showers
6:25 PM 75.2 °F 75.2 °F 100% 29.65 in 0.3 mi NNW 13.8 mph - N/A Rain Light Rain Showers
6:28 PM 75.2 °F 75.2 °F 100% 29.65 in 0.6 mi NNW 12.7 mph - N/A Rain Light Rain Showers
6:51 PM 75.2 °F 75.2 °F 100% 29.68 in 0.3 mi NNW 11.5 mph - N/A Rain Heavy Rain Showers
6:53 PM 75.2 °F 75.2 °F 100% 29.68 in 0.3 mi NNW 11.5 mph - N/A Rain Heavy Rain Showers
7:00 PM 76 °F 75 °F 97% 29.64 in - NNW 11.5 mph - -  
7:00 PM 75.2 °F 75.2 °F 100% 29.68 in 0.4 mi NNW 11.5 mph - N/A Rain Rain Showers
7:19 PM 77.0 °F 77.0 °F 100% 29.65 in 0.3 mi NNW 11.5 mph - N/A Rain Rain Showers
7:33 PM 77.0 °F 77.0 °F 100% 29.65 in 0.1 mi NNW 12.7 mph - N/A Rain Light Rain Showers
7:34 PM 77.0 °F 77.0 °F 100% 29.65 in 0.1 mi NNW 12.7 mph - N/A Rain Light Rain Showers
8:00 PM 77.0 °F 77.0 °F 100% 29.65 in 0.2 mi WNW 8.1 mph - N/A Rain Light Rain Showers
8:04 PM 77.0 °F 77.0 °F 100% 29.65 in 0.2 mi WNW 6.9 mph - N/A Rain Light Rain Showers
8:31 PM 77.0 °F 77.0 °F 100% 29.68 in 0.3 mi WNW 8.1 mph - N/A Rain Heavy Rain
8:36 PM 77.0 °F 77.0 °F 100% 29.68 in 0.2 mi WNW 6.9 mph - N/A Rain Light Rain
8:37 PM 77.0 °F 77.0 °F 100% 29.68 in 0.2 mi WNW 6.9 mph - N/A Rain Light Rain
8:38 PM 77.0 °F 77.0 °F 100% 29.68 in 0.2 mi WNW 6.9 mph - N/A Rain Light Rain
8:39 PM 77.0 °F 77.0 °F 100% 29.68 in 0.2 mi WNW 6.9 mph - N/A Rain Light Rain
8:42 PM 77.0 °F 77.0 °F 100% 29.68 in 0.3 mi WNW 6.9 mph - N/A Rain Light Rain
9:00 PM 78 °F 77 °F 96% 29.64 in 2 mi WNW 10.4 mph - -   Overcast
9:00 PM 77.0 °F 77.0 °F 100% 29.68 in 1.7 mi WNW 10.4 mph - N/A Rain Heavy Rain
9:56 PM 77.0 °F 77.0 °F 100% 29.68 in 5.0 mi West 8.1 mph - N/A   Overcast
10:00 PM 77 °F 77 °F 98% 29.65 in - West 8.1 mph - -  
10:00 PM 77.0 °F 77.0 °F 100% 29.68 in 3.7 mi West 8.1 mph - N/A Rain Light Rain Showers
10:37 PM 77.0 °F 77.0 °F 100% 29.68 in 6.2 mi West 6.9 mph - N/A   Overcast
10:40 PM 77.0 °F 77.0 °F 100% 29.68 in 3.7 mi West 6.9 mph - N/A   Overcast
11:00 PM 77.0 °F 77.0 °F 100% 29.68 in - WSW 6.9 mph - N/A Rain Light Rain Showers